Change the Weather History Date:

Monday, February 11, 2013

  Actual Average (KJAX) Record (KJAX)
Temperature  
Mean Temperature 70 °F 56 °F  
Max Temperature 80 °F 68 °F 84 °F (1939)
Min Temperature 59 °F 44 °F 24 °F (1971)
Degree Days  
Heating Degree Days 0 10  
Month to date heating degree days 115  
Since 1 July heating degree days 991  
Cooling Degree Days 4 1  
Month to date cooling degree days 6  
Year to date cooling degree days 17  
Growing Degree Days 20 (Base 50)    
Moisture  
Dew Point 60 °F    
Average Humidity 81    
Maximum Humidity 100    
Minimum Humidity 54    
Precipitation  
Precipitation 0.00 in 0.11 in 1.80 in (1981)
Month to date precipitation 1.18  
Year to date precipitation 4.48  
Snow  
Snow 0.00 in 0.00 in 0.00 in (2002)
Month to date snowfall 0.0  
Since 1 July snowfall T  
Snow Depth -    
Sea Level Pressure  
Sea Level Pressure 30.15 in    
Wind  
Wind Speed 3 mph (South)    
Max Wind Speed 20 mph    
Max Gust Speed -    
Visibility 10 miles    
Events      
T = Trace of Precipitation, MM = Missing Value Source: NWS Daily Summary

Daily Weather History Graph

Daily Weather History Graph

Search for Another Location

Airport or City:

Trip Planner

Search our weather history database for the weather conditions in past years. The results will help you decide how hot, cold, wet, or windy it might be!

Date:

Astronomy

Feb. 11, 2013 Rise Set
Actual Time 7:10 AM EST 6:13 PM EST
Civil Twilight 6:46 AM EST 6:37 PM EST
Nautical Twilight 6:17 AM EST 7:06 PM EST
Astronomical Twilight 5:49 AM EST 7:34 PM EST
Moon 7:44 AM EST (2/11) 7:55 PM EST (2/11)
Length of Visible Light 11h 51m
Length of Day
11h 02m
Waxing Crescent, 3% of the Moon is Illuminated
Feb 11
Waxing Crescent
Feb 17
First Quarter
Feb 25
Full
Mar 4
Last Quarter
Mar 11
New

Hourly Weather History & Observations

Time (EST) Temp. Heat Index Dew Point Humidity Pressure Visibility Wind Dir Wind Speed Gust Speed Precip Events Conditions
12:15 AM 64.4 °F - 57.2 °F 77% 30.20 in 10.0 mi SSE 4.6 mph - N/A   Clear
12:35 AM 64.4 °F - 57.2 °F 77% 30.20 in 10.0 mi SSE 3.5 mph - N/A   Scattered Clouds
12:55 AM 64.4 °F - 57.2 °F 77% 30.21 in 10.0 mi Calm Calm - N/A   Mostly Cloudy
1:15 AM 64.4 °F - 57.2 °F 77% 30.21 in 10.0 mi Calm Calm - N/A   Mostly Cloudy
1:35 AM 64.4 °F - 57.2 °F 77% 30.20 in 10.0 mi Calm Calm - N/A   Overcast
1:55 AM 62.6 °F - 57.2 °F 82% 30.20 in 10.0 mi SE 3.5 mph - N/A   Mostly Cloudy
2:15 AM 62.6 °F - 57.2 °F 82% 30.19 in 10.0 mi Calm Calm - N/A   Clear
2:35 AM 62.6 °F - 57.2 °F 82% 30.18 in 10.0 mi SE 3.5 mph - N/A   Clear
2:55 AM 62.6 °F - 57.2 °F 82% 30.17 in 10.0 mi SE 3.5 mph - N/A   Clear
3:15 AM 62.6 °F - 57.2 °F 82% 30.17 in 10.0 mi Calm Calm - N/A   Clear
3:35 AM 62.6 °F - 57.2 °F 82% 30.17 in 10.0 mi Calm Calm - N/A   Clear
3:55 AM 60.8 °F - 57.2 °F 88% 30.16 in 10.0 mi Calm Calm - N/A   Clear
4:15 AM 60.8 °F - 57.2 °F 88% 30.17 in 10.0 mi Calm Calm - N/A   Clear
4:35 AM 59.0 °F - 57.2 °F 94% 30.16 in 10.0 mi Calm Calm - N/A   Clear
4:55 AM 59.0 °F - 57.2 °F 94% 30.16 in 10.0 mi Calm Calm - N/A   Clear
5:15 AM 59.0 °F - 57.2 °F 94% 30.17 in 10.0 mi Calm Calm - N/A   Clear
5:35 AM 59.0 °F - 57.2 °F 94% 30.17 in 10.0 mi Calm Calm - N/A   Clear
5:55 AM 59.0 °F - 57.2 °F 94% 30.17 in 10.0 mi Calm Calm - N/A   Clear
6:15 AM 59.0 °F - 57.2 °F 94% 30.17 in 10.0 mi SE 3.5 mph - N/A   Clear
6:35 AM 59.0 °F - 57.2 °F 94% 30.18 in 10.0 mi SSE 3.5 mph - N/A   Clear
6:50 AM 59.0 °F - 57.2 °F 94% 30.18 in 10.0 mi SSE 6.9 mph - N/A   Clear
8:50 AM 64.4 °F - 59.0 °F 83% 30.19 in 10.0 mi South 5.8 mph - N/A   Clear
9:50 AM 69.8 °F - 60.8 °F 73% 30.19 in 10.0 mi South 8.1 mph - N/A   Clear
10:50 AM 75.2 °F - 62.6 °F 65% 30.19 in 10.0 mi SSE 6.9 mph - N/A   Clear
11:50 AM 77.0 °F - 60.8 °F 57% 30.17 in 10.0 mi SSW 19.6 mph - N/A   Partly Cloudy
12:50 PM 78.8 °F - 60.8 °F 54% 30.15 in 10.0 mi SSW 11.5 mph - N/A   Scattered Clouds
1:50 PM 78.8 °F - 62.6 °F 57% 30.12 in 10.0 mi SSW 13.8 mph - N/A   Scattered Clouds
2:50 PM 80.6 °F 81.8 °F 62.6 °F 54% 30.10 in 10.0 mi SSW 11.5 mph - N/A   Mostly Cloudy
3:50 PM 80.6 °F 81.8 °F 62.6 °F 54% 30.08 in 10.0 mi WSW 11.5 mph - N/A   Mostly Cloudy
4:50 PM 78.8 °F - 62.6 °F 57% 30.08 in 10.0 mi West 8.1 mph - N/A   Scattered Clouds
6:50 PM 73.4 °F - 62.6 °F 69% 30.09 in 10.0 mi WSW 6.9 mph - N/A   Scattered Clouds
7:50 PM 68.0 °F - 60.8 °F 78% 30.10 in 10.0 mi Calm Calm - N/A   Clear
8:15 PM 68.0 °F - 60.8 °F 78% 30.10 in 10.0 mi Calm Calm - N/A   Clear
8:35 PM 68.0 °F - 60.8 °F 78% 30.10 in 10.0 mi Calm Calm - N/A   Clear
8:55 PM 66.2 °F - 60.8 °F 83% 30.10 in 10.0 mi Calm Calm - N/A   Clear
9:15 PM 64.4 °F - 60.8 °F 88% 30.10 in 10.0 mi Calm Calm - N/A   Clear
9:35 PM 64.4 °F - 60.8 °F 88% 30.09 in 10.0 mi Calm Calm - N/A   Partly Cloudy
9:55 PM 66.2 °F - 62.6 °F 88% 30.09 in 10.0 mi South 4.6 mph - N/A   Clear
10:15 PM 66.2 °F - 62.6 °F 88% 30.09 in 10.0 mi South 4.6 mph - N/A   Clear
10:35 PM 66.2 °F - 62.6 °F 88% 30.09 in 7.0 mi SSW 5.8 mph - N/A   Clear
10:55 PM 66.2 °F - 62.6 °F 88% 30.09 in 10.0 mi Calm Calm - N/A   Clear
11:15 PM 64.4 °F - 62.6 °F 94% 30.10 in 8.0 mi Calm Calm - N/A   Clear
11:35 PM 64.4 °F - 62.6 °F 94% 30.10 in 7.0 mi Calm Calm - N/A   Clear
11:55 PM 62.6 °F - 62.6 °F 100% 30.10 in 5.0 mi Calm Calm - N/A   Clear